This is the latest recevied weather packets stored in our database for station/object KG7MRB. If no packets are shown the sender has not sent any weather packets the latest 10 day(s).
| Time | Temp. | Humidity | Pressure | Rain* | Wind** | Luminosity | Snow |
|---|---|---|---|---|---|---|---|
| 1777198888 | 1.11° C | 91% | 1027.9 hPa | 0 mm | - | 0 W/m² | - |
| 1777198586 | 1.11° C | 91% | 1027.6 hPa | 0 mm | - | 0 W/m² | - |
| 1777198283 | 1.67° C | 89% | 1027.6 hPa | 0 mm | - | 0 W/m² | - |
| 1777197979 | 1.67° C | 88% | 1027.6 hPa | 0 mm | - | 0 W/m² | - |
| 1777197674 | 1.67° C | 89% | 1027.5 hPa | 0 mm | - | 0 W/m² | - |
| 1777197370 | 1.67° C | 88% | 1027.7 hPa | 0 mm | - | 0 W/m² | - |
| 1777197068 | 1.67° C | 89% | 1027.9 hPa | 0 mm | - | 0 W/m² | - |
| 1777196768 | 1.67° C | 89% | 1027.9 hPa | 0 mm | - | 0 W/m² | - |
| 1777196465 | 1.67° C | 89% | 1027.7 hPa | 0 mm | - | 0 W/m² | - |
| 1777196162 | 1.67° C | 88% | 1027.8 hPa | 0 mm | - | 0 W/m² | - |
| 1777195858 | 2.22° C | 88% | 1027.8 hPa | 0 mm | - | 0 W/m² | - |
| 1777195553 | 2.22° C | 87% | 1027.8 hPa | 0 mm | - | 0 W/m² | - |
| 1777195250 | 2.22° C | 86% | 1027.7 hPa | 0 mm | - | 0 W/m² | - |
| 1777194946 | 2.22° C | 87% | 1027.8 hPa | 0 mm | - | 0 W/m² | - |
| 1777194641 | 2.78° C | 85% | 1027.9 hPa | 0 mm | - | 0 W/m² | - |
| 1777194338 | 2.78° C | 84% | 1027.6 hPa | 0 mm | - | 0 W/m² | - |
| 1777194035 | 2.78° C | 84% | 1027.9 hPa | 0 mm | - | 0 W/m² | - |
| 1777193734 | 3.33° C | 83% | 1027.8 hPa | 0 mm | - | 0 W/m² | - |
| 1777193434 | 3.33° C | 83% | 1027.6 hPa | 0 mm | - | 0 W/m² | - |
| 1777193129 | 3.89° C | 82% | 1027.9 hPa | 0 mm | - | 0 W/m² | - |
| 1777192824 | 3.33° C | 83% | 1027.8 hPa | 0 mm | - | 0 W/m² | - |
| 1777192521 | 3.89° C | 82% | 1027.9 hPa | 0 mm | - | 0 W/m² | - |
| 1777192216 | 3.89° C | 80% | 1028 hPa | 0 mm | - | 0 W/m² | - |
| 1777191914 | 4.44° C | 80% | 1027.8 hPa | 0 mm | - | 0 W/m² | - |
| 1777191610 | 5° C | 77% | 1027.9 hPa | 0 mm | - | 0 W/m² | - |
* Rain latest hour (hover to see other rain measurements)
** Current wind speed in m/s (hover to see current wind gust speed)